Santa Maria, CA

10:05 AM PDT on April 20, 2018 (GMT -0700)
Santa Maria Public Airport / Captain G. Allan Hancock Field

Weather History for KSMX - April, 2014

Change the Weather History Date:

Sunday, April 27, 2014

  Actual Average Record
Temperature  
Mean Temperature 56 °F 57 °F  
Max Temperature 69 °F 68 °F 101 °F (2004)
Min Temperature 42 °F 45 °F 31 °F (1984)
Degree Days  
Heating Degree Days 9 9  
Month to date heating degree days 155 259  
Since 1 July heating degree days 1449 2432  
Cooling Degree Days 0 0  
Month to date cooling degree days 2 0  
Year to date cooling degree days 14 2  
Growing Degree Days 6 (Base 50)    
Moisture  
Dew Point 45 °F    
Average Humidity 62    
Maximum Humidity 89    
Minimum Humidity 35    
Precipitation  
Precipitation 0.00 in 0.02 in 1.35 in (1944)
Month to date precipitation 0.84 0.92  
Year to date precipitation 4.00 9.30  
Since 1 July precipitation 4.50  
Sea Level Pressure  
Sea Level Pressure 30.08 in    
Wind  
Wind Speed 9 mph (WNW)    
Max Wind Speed 26 mph    
Max Gust Speed 33 mph    
Visibility 10 miles    
Events      
T = Trace of Precipitation, MM = Missing Value Source: NWS Daily Summary

Daily Weather History Graph

Daily Weather History Graph

Search for Another Location

Airport or City:

Astronomy

Apr. 27, 2014 Rise Set
Actual Time 6:15 AM PDT 7:44 PM PDT
Civil Twilight 5:48 AM PDT 8:10 PM PDT
Nautical Twilight 5:16 AM PDT 8:42 PM PDT
Astronomical Twilight 4:43 AM PDT 9:16 PM PDT
Moon 5:14 AM PDT (4/27) 6:26 PM PDT (4/27)
Length of Visible Light 14h 22m
Length of Day
13h 28m
Waning Crescent, 3% of the Moon is Illuminated
Apr 27
Waning Crescent
Apr 28
New
May 6
First Quarter
May 14
Full
May 21
Last Quarter

Hourly Weather History & Observations

Time (PDT) Temp. Dew Point Humidity Pressure Visibility Wind Dir Wind Speed Gust Speed Precip Events Conditions
12:51 AM 48.0 °F 43.0 °F 83% 30.10 in 10.0 mi Calm Calm - N/A   Clear
1:51 AM 46.9 °F 43.0 °F 86% 30.09 in 10.0 mi Calm Calm - N/A   Clear
2:51 AM 46.9 °F 42.1 °F 83% 30.07 in 9.0 mi Calm Calm - N/A   Clear
3:51 AM 44.1 °F 39.9 °F 85% 30.07 in 9.0 mi Calm Calm - N/A   Clear
4:51 AM 44.1 °F 39.0 °F 82% 30.07 in 10.0 mi Calm Calm - N/A   Clear
5:51 AM 44.1 °F 39.9 °F 85% 30.08 in 10.0 mi Calm Calm - N/A   Clear
6:51 AM 43.0 °F 39.9 °F 89% 30.09 in 10.0 mi Calm Calm - N/A   Partly Cloudy
7:51 AM 48.9 °F 43.0 °F 80% 30.10 in 10.0 mi WNW 3.5 mph - N/A   Partly Cloudy
8:51 AM 57.9 °F 39.0 °F 49% 30.10 in 10.0 mi NW 6.9 mph - N/A   Partly Cloudy
9:51 AM 61.0 °F 37.9 °F 42% 30.10 in 10.0 mi NW 12.7 mph - N/A   Scattered Clouds
10:51 AM 64.9 °F 37.9 °F 37% 30.10 in 10.0 mi NW 10.4 mph - N/A   Scattered Clouds
11:51 AM 66.9 °F 39.9 °F 37% 30.09 in 10.0 mi WNW 15.0 mph - N/A   Scattered Clouds
12:51 PM 68.0 °F 39.9 °F 36% 30.08 in 10.0 mi WNW 19.6 mph 23.0 mph N/A   Scattered Clouds
1:51 PM 68.0 °F 48.0 °F 49% 30.07 in 10.0 mi NW 19.6 mph 28.8 mph N/A   Scattered Clouds
2:51 PM 66.0 °F 50.0 °F 56% 30.07 in 10.0 mi WNW 23.0 mph 33.4 mph N/A   Scattered Clouds
3:51 PM 66.0 °F 51.1 °F 59% 30.07 in 10.0 mi NW 20.7 mph 25.3 mph N/A   Scattered Clouds
4:51 PM 64.0 °F 51.1 °F 63% 30.07 in 10.0 mi NW 20.7 mph 26.5 mph N/A   Scattered Clouds
5:51 PM 62.1 °F 52.0 °F 70% 30.06 in 10.0 mi WNW 15.0 mph 26.5 mph N/A   Scattered Clouds
6:26 PM 60.8 °F 51.8 °F 72% 30.05 in 10.0 mi WNW 17.3 mph - N/A   Mostly Cloudy
6:51 PM 57.9 °F 52.0 °F 81% 30.07 in 10.0 mi WNW 17.3 mph - N/A   Overcast
7:36 PM 57.2 °F 51.8 °F 82% 30.06 in 10.0 mi WNW 11.5 mph - N/A   Scattered Clouds
7:51 PM 55.9 °F 51.1 °F 84% 30.08 in 10.0 mi WNW 9.2 mph - N/A   Scattered Clouds
8:51 PM 54.0 °F 48.9 °F 83% 30.08 in 10.0 mi WNW 5.8 mph - N/A   Clear
9:51 PM 52.0 °F 48.0 °F 86% 30.10 in 10.0 mi West 5.8 mph - N/A   Clear
10:51 PM 52.0 °F 48.0 °F 86% 30.10 in 10.0 mi SW 3.5 mph - N/A   Clear
11:51 PM 50.0 °F 46.0 °F 86% 30.11 in 8.0 mi West 6.9 mph - N/A   Clear